CW0775 Weather Reports


time (UTC)temp
F
wind
direction
speed
knots
gust
knots
rain 1hr
in
rain 24hr
in
rain mn
in
humidity
%
barometer
mb
20260505200004 57 264 0.0 0.0 0.00 0.10 0.10 96 1006.8
20260505194504 57 264 0.0 0.0 0.00 0.10 0.10 96 1006.8
20260505194005 57 279 0.0 0.0 0.00 0.10 0.10 96 1006.5
20260505193505 57 274 0.0 0.0 0.00 0.10 0.10 96 1006.6
20260505193005 57 273 0.0 0.0 0.00 0.10 0.10 96 1006.4
20260505191505 58 273 0.0 0.0 0.00 0.10 0.10 96 1006.2
20260505191004 58 274 0.0 0.0 0.00 0.10 0.10 96 1006.4
20260505190005 58 248 0.0 0.0 0.00 0.10 0.10 96 1006.4
20260505184004 58 247 0.0 0.0 0.00 0.10 0.10 96 1006.4
20260505183505 58 246 0.0 0.0 0.00 0.10 0.10 96 1006.4
20260505181505 58 240 0.0 0.0 0.00 0.10 0.10 95 1006.4
20260505180504 58 265 0.0 0.0 0.00 0.10 0.10 95 1006.4
20260505180005 58 227 0.0 0.0 0.00 0.10 0.10 95 1006.8
20260505174005 59 248 0.0 0.0 0.00 0.10 0.10 94 1006.4
20260505173505 59 250 0.0 0.0 0.00 0.10 0.10 94 1006.4
20260505173004 59 236 0.0 0.0 0.00 0.10 0.10 94 1006.5
20260505171004 59 262 0.0 0.0 0.00 0.10 0.10 93 1006.8
20260505170504 59 262 0.0 0.0 0.00 0.10 0.10 93 1006.8
20260505170004 59 208 0.0 1.7 0.01 0.10 0.10 93 1006.4
20260505164504 59 261 0.0 0.0 0.01 0.10 0.10 93 1006.8
20260505164004 59 267 0.0 0.0 0.01 0.10 0.10 93 1006.6
20260505163505 59 261 0.0 0.0 0.01 0.10 0.10 93 1006.8
20260505163004 59 277 0.0 0.0 0.01 0.10 0.10 93 1006.8
20260505161004 59 277 0.0 0.0 0.03 0.10 0.10 93 1006.8
20260505160505 59 271 0.0 0.0 0.03 0.10 0.10 93 1006.8
20260505153004 59 267 0.0 2.6 0.04 0.09 0.09 93 1007.1
20260505151505 59 251 0.0 1.7 0.03 0.08 0.08 92 1007.1
20260505151004 59 280 0.0 1.7 0.03 0.07 0.07 92 1007.1
20260505150504 60 280 0.0 0.0 0.03 0.07 0.07 92 1007.1
20260505124504 61 262 0.9 2.6 0.01 0.01 0.01 86 1007.8
20260505124005 61 314 0.9 2.6 0.01 0.01 0.01 85 1007.8
20260505123504 62 292 1.7 2.6 0.01 0.01 0.01 85 1007.8
20260505123004 62 261 0.0 4.3 0.01 0.01 0.01 85 1008.1
20260505121504 64 259 0.0 1.7 0.00 0.00 0.00 80 1007.8
20260505121004 64 315 0.9 2.6 0.00 0.00 0.00 78 1007.8
20260505120503 65 283 0.9 2.6 0.00 0.00 0.00 75 1007.8
20260505114504 65 229 0.9 2.6 0.00 0.00 0.00 71 1007.8
20260505114004 65 319 1.7 2.6 0.00 0.00 0.00 71 1007.8
20260505113504 65 273 1.7 4.3 0.00 0.00 0.00 70 1007.8
20260505113005 65 246 2.6 6.1 0.00 0.00 0.00 70 1007.8
20260505111504 65 289 1.7 2.6 0.00 0.00 0.00 71 1008.1
20260505111003 65 276 2.6 4.3 0.00 0.00 0.00 70 1008.1
20260505110504 65 247 0.0 2.6 0.00 0.00 0.00 69 1008.1
20260505101004 65 272 0.0 1.7 0.00 0.00 0.00 71 1008.5
20260505100504 65 276 0.9 2.6 0.00 0.00 0.00 71 1008.5
20260505100004 65 258 0.0 0.0 0.00 0.00 0.00 70 1008.2
20260505094504 65 212 0.0 2.6 0.00 0.00 0.00 68 1008.5
20260505094004 65 209 1.7 2.6 0.00 0.00 0.00 68 1008.5
20260505093505 65 267 0.0 2.6 0.00 0.00 0.00 69 1008.5
20260505093004 65 157 0.9 4.3 0.00 0.00 0.00 68 1008.5
20260505091506 65 98 1.7 4.3 0.00 0.00 0.00 70 1008.5
20260505091006 65 233 0.0 1.7 0.00 0.00 0.00 71 1008.5
20260505090507 64 297 0.0 4.3 0.00 0.00 0.00 70 1008.6
20260505090006 64 279 1.7 4.3 0.00 0.00 0.00 71 1008.7
20260505084506 65 281 0.0 1.7 0.00 0.00 0.00 71 1008.8
20260505084005 64 254 0.0 1.7 0.00 0.00 0.00 77 1008.5
20260505083006 63 310 0.9 4.3 0.00 0.00 0.00 76 1008.8
20260505081506 62 274 3.5 4.3 0.00 0.00 0.00 79 1008.8
20260505080506 63 275 2.6 4.3 0.00 0.00 0.00 78 1008.8
20260505080005 63 283 2.6 4.3 0.00 0.00 0.00 79 1008.8
20260505074505 63 283 2.6 4.3 0.00 0.00 0.00 80 1008.9
20260505074006 63 197 0.9 6.1 0.00 0.00 0.00 79 1008.9
20260505073507 64 203 0.9 6.1 0.00 0.00 0.00 78 1008.8
20260505073005 64 238 0.0 1.7 0.00 0.00 0.00 78 1009.1
20260505071507 61 155 0.9 1.7 0.00 0.00 0.00 82 1009.1
20260505071005 61 196 0.0 2.6 0.00 0.00 0.00 82 1009.1
20260505070505 61 220 0.0 2.6 0.00 0.00 0.00 82 1009.1
20260505064505 64 220 0.0 2.6 0.00 0.00 0.00 79 1009.4
20260505064005 64 105 1.7 2.6 0.00 0.00 0.00 78 1009.3
20260505063506 62 233 0.0 2.6 0.00 0.00 0.00 79 1009.5
20260505063005 62 240 0.0 2.6 0.00 0.00 0.00 81 1009.5
20260505061506 58 292 0.0 0.0 0.00 0.00 0.00 87 1009.7
20260505061006 57 287 0.0 0.0 0.00 0.00 0.00 89 1009.5
20260505060005 55 284 0.0 0.0 0.00 0.00 0.00 93 1009.7
20260505054505 53 284 0.0 1.7 0.00 0.00 0.00 94 1009.5
20260505054006 53 276 0.0 0.0 0.00 0.00 0.00 95 1009.5
20260505053506 53 276 0.0 0.0 0.00 0.00 0.00 95 1009.7
20260505053005 53 276 0.0 0.0 0.00 0.00 0.00 95 1009.5
20260505051506 53 275 0.0 0.0 0.00 0.00 0.00 95 1009.1
20260505051005 53 275 0.0 0.0 0.00 0.00 0.00 95 1009.5
20260505050505 53 275 0.0 0.0 0.00 0.00 0.00 95 1009.4
20260505041505 53 276 0.0 0.0 0.00 0.00 0.00 96 1009.6
20260505040506 53 276 0.0 0.0 0.00 0.00 0.00 96 1009.8
20260505034505 53 276 0.0 0.0 0.00 0.00 0.00 96 1009.6
20260505033506 53 276 0.0 0.0 0.00 0.00 0.00 96 1009.8
20260505033005 53 276 0.0 0.0 0.00 0.00 0.00 96 1009.8
20260505031506 52 276 0.0 0.0 0.00 0.00 0.00 95 1010.2
20260505031005 52 276 0.0 0.0 0.00 0.00 0.00 95 1009.9
20260505030505 52 276 0.0 0.0 0.00 0.00 0.00 95 1010.2
20260505030005 52 276 0.0 0.0 0.00 0.00 0.00 95 1010.2
20260505024005 51 276 0.0 0.0 0.00 0.00 0.00 95 1010.2
20260505023006 51 276 0.0 0.0 0.00 0.00 0.00 95 1010.5
20260505021506 52 273 0.0 0.0 0.00 0.00 0.00 95 1010.5
20260505021005 52 275 0.0 0.0 0.00 0.00 0.00 95 1010.5
20260505020505 52 275 0.0 0.0 0.00 0.00 0.00 95 1010.6
20260505020005 53 275 0.0 1.7 0.00 0.00 0.00 95 1010.5
20260505014505 53 276 0.0 0.0 0.00 0.00 0.00 94 1010.8
20260505014004 53 276 0.0 0.0 0.00 0.00 0.00 94 1010.8
20260505011506 53 274 0.0 0.0 0.00 0.00 0.00 94 1010.8
20260505011005 54 275 0.0 0.0 0.00 0.00 0.00 94 1010.8
20260505010505 53 275 0.0 1.7 0.00 0.00 0.00 94 1011.1
20260505010005 53 275 0.9 2.6 0.00 0.00 0.00 94 1011.2
20260505004505 53 277 0.0 0.0 0.00 0.00 0.00 94 1011.2
20260505004005 53 278 0.0 0.0 0.00 0.00 0.00 94 1011.2
20260505003506 53 277 0.0 0.0 0.00 0.00 0.00 94 1011.2
20260505003004 53 277 0.0 0.0 0.00 0.00 0.00 94 1011.2
20260505001506 54 277 0.0 0.0 0.00 0.00 0.00 93 1011.2
20260505001005 54 277 0.0 0.0 0.00 0.00 0.00 93 1011.2
20260505000506 54 277 0.0 0.0 0.00 0.00 0.00 93 1011.2
20260505000005 54 277 0.0 0.0 0.00 0.00 0.00 93 1011.2
20260504234505 55 278 0.0 0.0 0.00 0.00 0.00 92 1011.5
20260504234004 55 277 0.0 0.0 0.00 0.00 0.00 92 1011.5
20260504233505 55 277 0.0 0.0 0.00 0.00 0.00 92 1011.5
20260504233005 55 277 0.0 0.0 0.00 0.00 0.00 92 1011.5
20260504231505 55 277 0.0 0.0 0.00 0.00 0.00 91 1011.5
20260504230504 55 278 0.0 0.0 0.00 0.00 0.00 91 1011.9
20260504230005 55 277 0.0 0.0 0.00 0.00 0.00 91 1011.9
20260504224505 56 278 0.0 0.0 0.00 0.00 0.00 90 1012.2
20260504224004 56 278 0.0 0.0 0.00 0.00 0.00 89 1011.9
20260504223505 56 277 0.0 0.0 0.00 0.00 0.00 89 1011.9
20260504223005 56 278 0.0 0.0 0.00 0.00 0.00 89 1012.2
20260504221506 56 278 0.0 0.0 0.00 0.00 0.00 88 1012.2
20260504221005 56 278 0.0 0.0 0.00 0.00 0.00 87 1012.2
20260504220505 56 278 0.0 0.0 0.00 0.00 0.00 87 1012.2
20260504220004 56 278 0.0 0.0 0.00 0.00 0.00 88 1012.2
20260504214505 57 277 0.0 0.0 0.00 0.00 0.00 86 1012.5
20260504213505 57 277 0.0 0.0 0.00 0.00 0.00 87 1012.3
20260504211506 57 277 0.0 0.0 0.00 0.00 0.00 86 1012.2
20260504211004 57 277 0.0 1.7 0.00 0.00 0.00 86 1012.4
20260504210505 57 278 1.7 1.7 0.00 0.00 0.00 86 1012.5
20260504210004 57 278 1.7 2.6 0.00 0.00 0.00 86 1012.5
20260504204504 57 277 0.0 0.0 0.00 0.00 0.00 86 1012.9
20260504204005 58 277 0.0 1.7 0.00 0.00 0.00 86 1012.5
20260504203505 58 278 0.0 1.7 0.00 0.00 0.00 85 1012.5
20260504203005 58 277 0.0 2.6 0.00 0.00 0.00 85 1012.6
20260504201004 58 276 0.0 0.0 0.00 0.00 0.00 85 1012.7